Theta_e
326 327 327 327 327 327 327 328 328 328 328 328 328 328 328 329 329 328 328 328 327 328 329 328 328 328 328 329 329 330 330 329 329 329 328 328 326 326 326 319 312 315 320 321 321 322 322 324 324 324 324 323 320 314 308 307 306 302 301 301 301 301 302 301 300 301 300 300 301 300 301 301 301 301
325 326 327 327 327 327 327 328 328 328 328 328 328 328 328 328 328 327 327 327 327 328 329 328 328 327 328 328 329 329 330 330 329 329 328 328 327 325 326 323 314 313 319 321 321 321 321 323 324 324 324 324 323 319 312 307 305 303 300 301 301 301 302 301 300 300 300 300 300 300 301 301 301 301
324 323 324 325 326 327 328 328 328 328 328 328 328 329 329 329 329 328 328 328 328 328 329 328 328 327 326 327 328 329 330 330 330 329 328 327 327 326 326 325 318 313 316 320 320 321 321 322 323 324 324 324 323 323 318 310 305 303 301 300 301 301 301 301 301 300 301 301 301 301 301 301 301 301
323 323 323 323 324 325 326 326 327 327 328 328 328 328 329 329 329 329 329 329 329 329 329 329 328 325 323 324 327 329 329 330 330 329 328 328 328 327 326 326 323 316 314 318 320 320 321 321 322 323 324 324 323 323 322 316 309 304 302 301 300 301 301 301 301 301 301 301 301 301 301 301 301 301
325 325 324 323 323 323 325 325 325 326 328 328 328 328 328 328 329 329 330 330 330 329 329 329 327 323 323 325 327 329 329 330 330 329 329 328 328 327 326 326 325 321 316 316 319 320 320 321 321 322 323 324 323 323 323 321 314 306 302 301 301 301 301 301 301 301 301 301 301 301 301 301 301 301
326 327 326 324 322 322 324 325 324 325 327 327 327 328 329 328 329 329 329 329 329 328 328 328 326 324 325 326 326 328 328 329 330 329 329 328 328 327 327 326 325 324 320 316 317 320 321 320 321 322 322 323 324 323 322 322 319 312 304 301 301 301 301 301 301 301 301 301 301 301 301 301 301 301
326 326 327 326 325 324 325 326 325 326 326 325 324 324 326 327 328 329 329 328 327 326 327 328 327 325 325 326 327 327 328 329 329 329 329 329 328 327 327 326 325 325 324 319 316 318 320 321 321 321 322 322 322 323 322 321 322 318 308 302 301 300 300 301 301 300 300 301 301 301 301 301 301 301
326 326 326 327 327 326 326 326 326 325 325 325 324 323 322 323 326 327 325 324 322 322 323 325 326 326 326 327 328 328 328 329 329 329 329 328 328 327 326 326 326 325 325 322 317 316 318 321 322 321 321 322 322 322 321 320 321 320 312 304 301 300 300 301 300 300 300 300 300 300 300 301 301 301
325 325 326 326 327 326 327 327 326 325 324 323 325 324 322 323 325 325 322 320 320 320 320 322 324 325 326 327 327 327 328 329 328 328 328 328 328 327 327 327 326 325 325 323 321 317 316 318 320 320 321 321 321 321 321 319 319 320 317 309 302 300 300 300 300 300 300 300 300 300 300 300 301 301
322 323 324 325 326 326 327 327 326 326 325 324 324 324 323 323 325 324 324 323 322 321 321 320 321 323 326 326 326 326 327 327 328 328 328 328 328 328 327 326 326 326 325 324 323 321 318 317 317 318 319 320 320 320 320 318 317 320 320 312 303 300 300 300 300 300 299 299 300 300 300 300 301 301
320 321 322 323 324 325 325 326 326 326 326 326 325 325 324 323 324 325 326 325 324 322 322 321 320 322 325 326 325 326 326 326 327 328 328 328 327 328 327 327 326 326 325 324 324 323 322 321 319 319 319 319 318 318 318 316 316 319 320 313 303 300 301 300 300 299 299 299 299 299 299 300 301 301
319 320 320 322 322 322 323 324 324 325 326 326 325 325 325 324 325 325 325 325 325 324 324 323 323 324 326 325 325 326 326 326 327 327 327 327 327 327 327 327 326 325 325 325 324 324 323 322 322 321 321 320 319 319 318 317 317 320 321 316 306 300 300 300 300 299 299 298 299 299 299 300 301 302
319 320 320 320 320 320 321 321 322 323 324 325 325 325 325 325 325 325 325 325 325 324 324 324 325 325 325 325 326 326 326 327 326 326 326 327 326 326 326 327 326 326 326 325 324 324 323 322 323 323 323 322 321 321 320 319 319 320 320 319 311 302 300 301 300 299 299 298 299 299 299 300 302 304
319 319 319 318 318 318 318 319 319 320 321 322 323 325 325 325 325 325 325 325 324 324 324 324 325 325 325 325 326 326 326 326 326 326 326 326 326 326 326 327 326 326 326 325 324 323 322 323 323 322 323 323 321 321 320 320 320 320 320 320 315 305 300 300 300 299 299 298 298 298 299 300 302 304
318 318 317 317 317 316 316 317 317 317 318 319 320 322 323 325 325 325 325 324 324 324 323 324 324 324 325 325 325 326 326 326 326 327 327 326 326 326 326 326 326 326 326 325 324 323 323 324 323 321 323 323 321 320 319 319 320 320 320 320 316 307 301 300 300 299 299 298 298 298 298 299 301 303
317 316 316 316 316 316 316 316 316 316 316 316 317 318 320 321 322 323 324 323 323 323 323 323 323 323 324 324 324 325 325 325 326 326 326 326 326 326 326 326 327 326 325 324 324 323 323 323 322 321 322 323 322 320 319 320 320 319 319 320 316 309 302 300 300 300 299 299 299 299 299 299 301 302
315 315 315 315 315 315 315 315 315 315 315 315 315 316 316 317 318 319 320 321 321 322 322 322 322 322 322 323 323 323 323 323 324 324 325 326 325 326 326 325 325 324 324 324 324 323 323 322 321 321 322 322 321 320 319 320 319 318 318 318 317 311 303 300 300 300 300 300 300 300 300 300 300 301
313 313 313 313 313 314 314 314 315 314 315 314 314 314 315 315 315 316 317 317 318 319 320 320 321 321 321 321 322 322 322 322 323 323 324 324 325 325 325 323 323 323 323 322 320 320 322 321 320 321 322 322 321 320 320 320 318 318 318 318 316 311 303 301 301 300 300 300 300 300 301 301 302 303
310 310 310 310 311 312 312 313 314 314 314 315 314 315 314 314 314 315 315 315 315 316 317 317 318 318 319 319 320 321 321 322 322 322 322 323 324 325 324 323 322 322 322 320 315 316 320 320 319 320 321 320 319 319 319 318 317 318 319 317 314 309 304 303 303 302 301 301 301 301 302 302 303 304
308 308 309 309 309 310 310 311 312 312 313 315 315 314 314 314 315 314 314 314 315 315 315 315 315 315 316 316 316 318 319 320 321 321 321 321 322 323 323 322 320 318 319 318 314 314 318 319 319 319 319 319 319 319 318 317 316 319 319 315 310 307 306 306 306 304 304 304 303 303 304 304 305 306
305 305 306 306 307 308 308 308 309 310 312 313 314 313 312 313 313 313 313 313 313 313 313 313 312 312 312 312 312 313 314 315 317 319 319 319 320 321 322 321 317 315 318 319 315 313 316 317 317 317 318 319 319 319 319 317 317 317 315 310 307 306 307 307 307 308 308 307 307 306 306 306 306 306
302 302 302 302 303 304 305 306 307 308 309 310 311 311 311 311 311 311 311 312 311 311 311 311 311 311 311 311 311 311 311 312 313 314 315 317 319 320 320 320 318 317 319 320 317 314 314 314 315 315 317 318 318 318 318 317 316 314 310 308 308 309 310 310 310 311 310 308 307 306 306 305 304 303
300 300 300 300 300 301 301 302 304 305 306 307 308 308 309 309 309 308 309 309 309 309 309 309 309 309 309 310 310 310 310 310 310 310 311 313 316 318 319 318 319 319 319 319 318 316 314 314 313 314 315 316 316 316 316 316 315 313 312 312 312 312 311 310 309 307 307 306 305 304 303 302 302 301
298 298 299 299 299 299 299 300 301 301 303 304 305 306 306 307 306 306 307 307 307 307 307 307 307 307 307 308 308 308 308 308 308 308 309 309 311 313 315 316 318 318 318 317 318 318 316 315 314 314 314 314 314 313 313 312 313 313 313 313 312 309 307 306 305 304 304 303 302 302 301 300 300 300
297 297 298 299 299 299 299 299 299 299 299 300 301 302 303 303 304 305 305 306 306 306 306 306 306 306 306 305 306 306 306 306 306 306 307 308 308 308 310 312 314 316 316 316 316 317 316 316 315 314 314 313 313 312 311 310 311 311 310 310 309 306 304 303 303 302 302 301 300 300 300 300 300 300
297 297 297 298 298 299 298 298 298 298 298 298 298 299 300 301 301 303 303 304 304 304 305 304 304 304 303 303 303 304 304 303 303 304 304 305 305 306 307 308 310 312 313 314 315 315 315 315 315 314 314 313 312 310 309 308 307 306 304 304 304 303 302 302 302 301 300 299 299 299 299 299 299 298
296 296 296 297 297 297 297 297 298 297 297 297 297 297 297 298 299 300 300 301 302 302 302 302 302 302 302 301 301 301 301 301 301 302 302 303 303 304 305 306 307 309 310 311 312 313 312 312 312 312 313 313 311 308 306 305 303 302 301 301 301 301 301 301 301 300 299 299 298 298 298 298 298 298
294 295 295 295 295 295 295 296 297 297 297 297 297 297 297 297 298 298 299 299 300 300 299 299 300 300 300 301 301 301 301 300 301 301 301 302 302 302 303 303 305 306 308 309 310 310 309 310 310 309 309 310 309 306 304 302 300 300 300 301 300 300 299 299 299 298 298 298 298 298 298 298 298 298
293 294 294 294 294 294 294 295 295 296 296 296 297 297 297 297 297 297 298 298 298 298 298 298 299 299 299 300 301 301 300 300 300 301 301 301 301 301 302 302 303 304 305 306 307 308 308 308 309 308 306 307 306 303 301 300 300 300 300 300 299 298 298 298 298 297 298 298 298 298 298 298 297 297
293 294 294 294 294 294 294 294 294 294 295 295 296 296 296 297 297 297 297 297 297 298 298 298 299 299 298 298 299 301 301 300 300 300 300 300 300 300 301 302 302 302 303 303 304 305 305 305 306 305 304 304 303 302 301 301 300 300 299 299 298 297 297 298 297 297 297 297 297 297 297 297 296 296
293 293 293 293 293 294 294 294 294 294 294 295 295 296 296 296 296 297 297 297 297 297 297 297 298 299 298 298 299 300 300 300 300 300 300 300 300 299 300 300 301 301 302 302 302 303 303 303 303 303 303 303 302 302 302 301 300 298 298 298 297 297 297 297 297 297 297 297 296 296 296 296 296 296
293 293 293 293 293 293 294 294 294 294 294 294 295 295 295 295 296 296 297 297 297 296 297 297 298 298 299 298 299 299 299 299 299 300 299 299 299 299 299 299 299 300 300 301 302 302 302 301 302 302 302 302 302 301 300 300 299 298 297 297 297 298 298 298 297 297 297 297 297 297 297 297 297 297
293 293 293 293 293 293 293 293 293 294 294 295 295 295 295 295 295 296 296 297 297 297 297 297 297 298 298 298 298 299 299 299 299 299 299 298 298 298 298 299 299 299 299 300 300 301 301 301 301 301 301 301 301 300 300 299 298 297 297 297 297 297 297 297 297 297 296 297 297 297 297 297 297 297
293 293 293 293 293 293 293 293 294 294 294 294 295 294 294 295 295 296 296 296 296 296 297 297 297 297 297 297 297 298 298 299 299 299 298 298 298 298 298 299 299 299 300 299 299 300 300 300 301 300 300 300 300 299 299 299 297 297 297 297 296 296 296 296 296 296 296 296 296 296 296 297 297 297
292 292 292 292 292 292 292 293 293 294 294 294 294 294 294 294 295 295 296 296 296 296 296 296 296 296 296 296 297 297 297 298 299 299 299 298 298 298 298 299 299 299 300 299 299 299 299 300 300 300 300 299 299 299 298 298 298 297 297 297 296 296 296 296 296 295 295 295 296 296 296 297 297 296
291 291 290 291 291 291 292 292 293 293 294 294 294 294 294 294 294 295 295 296 296 296 295 296 296 295 295 295 296 296 297 297 298 298 299 298 298 298 298 298 299 299 299 299 298 298 299 299 300 300 299 299 299 298 298 298 298 298 297 297 297 296 296 296 296 295 295 295 295 295 296 296 296 295
291 290 290 290 290 290 291 291 292 292 293 294 294 294 294 294 294 294 295 295 295 295 295 295 295 295 294 294 294 295 295 296 297 297 298 298 298 298 298 298 298 298 298 298 298 298 298 298 298 298 298 298 298 298 297 297 297 297 296 297 297 297 296 296 295 295 295 295 295 295 295 295 295 294
291 290 290 289 289 289 289 290 291 292 292 293 293 294 294 294 294 294 295 295 295 295 295 295 294 294 294 294 294 294 294 295 295 296 297 298 298 298 298 298 298 298 298 298 298 298 298 297 297 297 296 297 297 296 296 296 295 295 294 294 294 294 295 295 294 294 294 294 294 295 294 294 294 293
291 291 290 289 289 288 288 288 289 290 290 291 292 293 293 294 294 294 294 294 294 295 295 295 294 294 293 293 294 293 293 293 294 295 295 296 297 297 297 297 297 298 298 297 297 297 297 297 296 296 296 296 296 295 295 295 294 293 292 291 291 292 294 294 294 294 294 294 294 294 293 293 292 292
291 291 290 290 290 289 289 288 288 288 288 289 290 291 292 293 293 293 293 294 294 294 295 295 294 294 293 293 293 293 293 292 292 293 293 294 295 296 296 297 297 297 297 297 297 297 297 296 296 295 295 295 295 294 294 293 292 291 291 291 292 292 293 293 293 293 293 294 293 293 292 292 291 291
291 291 291 291 290 290 290 289 289 288 288 288 288 289 290 292 292 292 293 293 294 294 294 294 294 293 293 293 293 293 293 292 292 292 292 292 293 294 295 295 296 296 296 296 296 297 297 296 295 294 294 294 294 293 292 291 290 290 290 291 291 292 292 292 292 292 292 292 292 291 291 291 290 290
291 291 291 291 290 290 290 290 289 289 289 288 288 288 288 289 291 292 293 293 293 293 294 294 294 293 293 293 294 293 293 293 292 292 292 292 292 293 294 294 294 294 295 295 295 295 296 296 295 294 294 293 292 292 291 290 289 289 290 290 290 290 291 290 291 291 291 290 290 289 289 289 289 288
291 291 291 290 290 290 290 290 290 290 289 289 289 288 288 288 288 289 291 292 293 293 293 293 294 294 294 294 294 293 293 293 292 292 292 292 292 292 293 293 293 293 293 293 293 294 295 295 294 294 293 292 291 291 290 290 289 289 289 289 289 289 289 289 289 289 289 289 289 288 288 289 288 288
292 291 291 290 290 290 290 290 290 290 289 289 289 289 289 288 288 287 288 289 291 292 293 292 293 294 294 294 294 294 293 293 293 292 292 292 292 292 292 292 292 293 293 293 293 293 293 293 293 293 292 292 291 290 289 289 289 289 289 289 289 289 289 289 289 289 289 289 289 289 289 289 289 289
292 291 291 291 291 291 290 289 289 289 289 289 289 289 289 289 288 288 287 287 288 290 291 292 293 293 293 294 294 293 293 293 293 292 293 292 292 292 292 292 292 292 292 292 292 292 292 293 292 292 292 291 290 289 289 289 289 290 290 290 290 290 290 290 290 290 289 289 289 289 289 289 289 289
Wind_Speed
17 18 17 17 19 20 20 19 19 20 20 23 27 30 31 30 27 25 25 28 29 28 28 28 27 29 32 34 35 34 32 31 32 33 33 32 30 28 27 25 27 29 30 29 29 29 27 24 23 23 23 22 20 19 18 16 15 15 15 16 16 15 15 16 17 17 16 16 15 14 12 11 10 9
16 17 15 13 14 15 17 17 17 19 19 20 24 27 28 29 30 29 27 27 29 29 29 29 27 26 27 30 32 34 34 32 33 35 35 33 31 29 28 27 27 29 31 30 30 29 28 26 24 23 24 24 22 20 19 17 16 16 17 17 17 15 15 16 16 16 16 15 14 14 12 12 11 10
16 16 15 13 12 12 12 14 15 16 17 17 21 25 27 28 29 30 31 30 30 30 29 29 26 24 23 24 27 31 33 33 34 36 36 34 32 30 29 29 28 28 30 31 30 30 29 28 26 24 24 24 23 21 20 19 17 17 18 18 17 16 16 17 16 16 15 15 14 14 13 12 11 11
17 17 16 14 14 14 14 15 15 16 17 17 20 23 28 31 30 29 30 32 32 30 30 29 26 24 23 22 24 28 31 33 34 36 36 35 34 32 31 30 29 29 30 30 30 30 30 29 27 25 22 21 22 21 19 20 19 18 19 19 17 16 17 18 17 16 16 15 15 14 13 13 12 11
19 18 16 15 14 14 15 16 15 15 17 18 21 23 25 28 29 28 28 30 30 30 29 27 25 24 23 23 24 26 29 32 34 35 36 35 35 34 33 33 32 30 30 30 30 31 31 30 28 27 24 20 18 18 17 19 21 20 19 19 17 17 18 19 18 17 16 16 15 14 14 13 12 11
19 19 17 16 16 15 16 16 14 12 12 12 15 20 22 22 23 25 25 25 28 29 26 23 21 21 22 23 24 25 26 29 32 34 36 35 35 35 35 35 34 32 31 31 31 31 31 31 29 28 26 23 20 18 17 17 21 22 20 19 18 18 19 20 19 18 17 17 16 15 14 13 12 12
18 18 18 18 17 16 17 17 13 11 10 9 8 10 14 16 18 22 21 20 22 24 22 20 19 20 22 23 24 24 24 25 28 32 36 36 35 36 37 37 35 33 32 31 32 32 32 31 30 29 27 25 23 22 19 17 19 23 23 20 19 19 20 21 20 19 19 18 16 16 15 14 13 13
19 19 19 18 17 15 16 16 13 10 11 11 10 9 9 10 13 16 15 13 16 19 20 18 17 22 25 25 24 24 24 25 27 31 34 36 36 37 38 37 34 33 32 31 31 32 32 32 31 29 28 26 25 23 21 18 18 23 25 22 20 20 21 22 21 20 20 19 18 17 16 15 14 14
20 20 19 18 18 16 16 16 14 12 11 11 11 9 7 7 8 11 12 13 16 19 20 17 15 19 24 26 25 23 24 26 28 29 31 34 36 37 37 36 34 33 33 32 31 31 32 32 31 30 29 27 26 24 23 21 20 22 25 24 21 21 22 22 21 21 21 20 19 18 17 16 16 15
21 21 21 20 20 19 18 17 16 14 12 10 9 8 7 7 8 11 13 14 14 16 17 16 17 18 19 20 22 21 22 26 28 28 28 30 33 36 37 35 35 34 33 31 31 31 32 31 31 30 29 28 27 25 24 24 22 21 24 25 23 22 23 23 22 22 22 21 20 19 18 17 17 17
22 22 23 23 23 23 22 20 18 16 14 12 10 9 8 9 10 11 11 10 12 14 15 16 19 21 19 17 18 19 19 21 24 25 27 29 32 35 36 35 35 35 33 32 32 32 31 31 30 30 29 28 27 26 25 25 23 22 23 25 25 23 23 23 23 23 23 22 21 20 19 18 18 17
23 23 23 24 24 24 24 24 22 19 17 15 14 11 9 8 9 10 11 10 9 11 14 16 19 20 18 15 15 17 17 18 20 23 26 29 32 34 34 34 34 35 34 34 34 33 32 31 30 29 28 28 28 28 27 26 24 24 25 25 25 24 24 24 24 24 24 23 22 21 20 19 18 18
23 23 24 25 25 25 25 24 24 23 21 18 16 15 13 11 10 9 10 11 11 11 12 16 18 18 16 15 15 16 17 18 19 22 24 26 29 31 31 32 33 34 35 36 35 34 33 32 30 28 27 27 28 28 27 27 26 26 26 25 25 24 24 25 25 25 24 24 23 22 21 20 19 19
24 24 25 25 26 27 27 26 26 26 26 25 22 20 18 16 14 12 11 10 10 11 12 14 15 16 15 16 16 17 17 18 19 22 23 24 26 28 29 32 33 33 34 35 34 33 32 31 30 29 28 28 27 27 27 27 27 27 27 26 26 25 24 25 25 25 24 24 23 23 22 21 20 20
24 24 25 26 27 28 29 29 28 28 29 29 28 25 22 19 18 16 14 12 11 10 11 12 14 14 15 16 17 18 18 18 19 21 22 24 27 29 30 32 33 34 35 34 33 34 34 33 31 29 29 30 29 27 27 26 27 28 27 26 26 25 24 25 24 24 24 24 23 23 22 22 21 21
22 23 24 24 25 27 27 28 29 28 28 28 28 27 26 24 22 20 17 15 14 12 11 11 12 13 13 14 16 18 19 18 19 21 23 24 26 28 30 33 34 35 34 33 32 33 33 33 30 29 32 33 31 28 26 26 27 27 27 27 26 24 24 25 24 24 24 24 24 23 23 23 22 22
19 21 22 22 23 24 24 26 27 26 25 25 25 25 25 25 24 22 20 18 16 14 13 12 12 12 13 14 15 16 17 19 20 22 24 26 27 29 32 35 35 34 34 33 32 31 31 32 31 31 32 32 30 28 27 28 27 25 27 29 27 24 25 25 24 24 24 24 24 23 23 23 22 21
20 21 22 23 24 24 24 25 26 25 24 23 23 23 23 24 23 23 23 23 23 22 19 17 15 15 15 16 17 16 16 17 18 20 23 24 25 28 30 30 30 31 32 32 31 30 31 33 32 32 32 30 29 28 28 28 26 26 29 30 26 24 25 25 24 24 24 24 24 23 23 22 20 19
22 23 23 25 26 26 26 26 25 23 22 21 21 23 23 23 23 24 25 26 26 27 26 25 22 20 18 17 17 17 17 17 16 16 19 23 26 29 29 28 28 28 28 28 28 30 33 33 32 34 34 31 29 29 29 28 28 30 31 28 25 25 25 24 23 23 23 23 22 21 20 19 19 18
23 23 24 24 24 24 26 26 25 24 21 18 19 21 22 23 23 24 25 24 24 24 25 25 25 24 22 20 18 18 17 17 17 15 16 21 26 29 30 28 25 24 25 26 27 28 32 34 34 34 32 30 29 29 29 28 29 30 29 27 26 25 24 23 22 21 20 20 20 20 19 19 18 16
25 26 26 25 23 23 23 24 23 23 21 19 19 20 21 20 21 22 22 21 21 22 21 21 22 22 22 22 23 23 23 21 16 12 12 17 22 24 22 21 21 22 24 26 26 26 28 32 33 32 31 30 30 30 30 29 30 30 28 26 26 23 21 21 20 19 18 18 18 18 18 16 15 14
27 28 29 28 27 26 25 23 22 22 21 20 20 21 21 20 21 23 22 20 20 20 20 21 22 22 23 24 25 26 27 26 23 19 12 9 17 19 18 17 18 21 25 26 25 26 26 28 30 32 31 29 28 28 29 28 27 27 25 23 23 22 21 21 21 20 20 19 18 17 16 15 14 13
28 29 30 30 30 29 27 26 24 23 23 22 21 21 21 22 23 24 23 22 23 23 23 23 23 23 23 24 24 25 26 25 25 26 24 14 5 11 16 18 18 19 23 25 25 27 28 28 29 31 31 27 25 24 25 25 24 23 24 25 24 23 23 22 21 22 22 21 20 18 15 14 12 11
28 28 29 29 29 28 27 27 27 26 25 24 23 22 23 23 22 21 21 22 22 23 23 23 23 23 23 22 22 22 23 24 24 25 26 25 20 11 2 12 18 19 18 21 25 27 28 29 29 30 31 28 24 22 20 20 21 21 23 26 25 24 25 25 23 22 21 19 17 15 13 12 10 10
27 27 27 27 26 25 25 26 26 27 27 26 26 25 23 20 18 17 18 18 19 20 21 22 22 22 22 22 21 20 20 21 23 23 22 23 24 22 17 6 6 12 13 16 23 25 25 27 27 27 29 28 25 25 23 20 20 23 24 26 27 26 24 23 21 19 17 17 16 15 14 14 12 11
26 25 24 24 23 22 23 24 24 25 25 26 27 26 23 20 18 17 17 17 18 19 20 21 22 23 24 25 24 23 21 20 20 20 19 19 20 20 21 19 12 5 4 6 17 24 25 26 28 29 30 29 26 27 28 27 28 29 28 27 25 23 20 18 18 19 19 19 18 17 16 16 15 13
24 23 22 21 20 20 21 22 23 24 24 25 26 26 25 24 23 23 22 21 21 21 22 24 25 27 28 28 28 27 25 22 20 18 16 16 16 17 17 18 16 13 12 7 8 21 23 23 27 30 31 32 30 31 33 35 34 31 28 25 23 22 21 19 19 20 19 18 17 16 15 15 14 14
22 21 20 20 19 20 20 21 22 23 25 25 25 25 25 26 26 27 28 28 28 28 30 31 30 29 27 27 27 27 26 23 21 19 17 15 13 14 15 15 15 12 9 8 3 9 12 13 20 25 26 28 33 37 38 37 34 31 28 27 25 23 21 19 19 19 18 16 15 15 14 15 16 16
22 20 19 20 21 22 22 22 23 25 26 26 25 25 26 26 28 30 30 30 31 32 33 34 33 31 28 24 22 22 22 23 24 24 23 20 16 15 13 12 14 14 9 8 7 2 1 4 13 19 22 26 33 38 39 35 31 29 28 28 26 23 20 19 19 19 19 18 18 17 16 16 17 16
20 20 20 20 21 23 24 24 26 27 27 26 26 26 27 27 29 30 30 31 32 33 33 33 32 32 30 25 21 19 20 22 26 27 26 24 23 22 17 11 13 18 18 15 12 8 7 8 9 14 21 27 29 29 29 29 29 29 28 27 27 24 22 20 20 20 20 20 20 19 18 16 16 15
20 20 21 21 21 22 23 24 26 27 28 28 29 29 29 29 29 30 30 31 32 32 32 31 31 31 31 29 26 23 21 23 26 26 24 24 25 25 22 19 17 18 20 20 18 15 14 14 12 13 20 25 22 20 23 27 31 30 28 26 26 25 24 23 22 21 21 20 20 19 18 17 16 15
21 21 21 22 23 23 24 25 27 28 29 30 31 31 31 31 31 30 30 30 32 33 32 31 30 30 31 31 30 27 25 25 26 23 21 22 24 23 24 25 24 21 19 18 17 15 13 11 9 10 13 16 17 22 28 30 30 29 27 26 25 25 24 23 22 21 20 19 19 18 17 16 15 14
22 22 24 25 26 27 28 29 30 31 31 31 31 31 31 32 32 32 32 32 33 33 33 32 32 32 32 32 32 30 29 27 24 21 20 21 23 23 24 25 24 22 21 19 17 15 12 10 9 9 10 13 19 26 29 28 27 26 26 25 25 25 24 22 22 21 19 18 18 16 15 15 15 14
24 26 27 29 29 29 30 31 31 31 31 31 32 31 31 32 32 32 32 32 32 32 31 32 32 33 33 33 33 33 32 29 24 19 18 20 22 22 23 23 20 19 19 19 17 16 14 13 13 13 14 18 24 25 23 23 24 23 20 21 23 24 23 22 20 18 16 15 14 13 13 14 14 13
27 29 29 30 29 29 29 29 28 29 29 29 30 30 30 31 31 30 30 30 29 29 29 30 31 32 33 33 33 33 32 30 27 21 16 17 20 21 21 22 21 19 18 18 16 13 10 11 14 16 20 22 23 22 20 20 21 18 16 18 19 18 18 18 16 14 13 12 11 11 14 15 14 13
29 29 29 29 28 28 27 26 25 25 25 26 26 27 28 29 29 28 28 27 27 27 28 29 30 31 33 33 33 32 31 30 30 26 17 14 17 19 18 18 18 18 18 18 17 14 10 10 13 17 19 19 18 18 18 17 15 13 12 13 13 13 13 12 12 12 12 10 10 10 13 15 16 14
28 28 28 28 27 26 25 24 23 22 22 22 22 23 24 26 26 26 24 23 23 24 25 26 28 29 31 32 32 32 31 30 30 29 22 15 14 16 16 14 14 14 15 16 16 17 16 15 16 16 15 14 14 15 15 14 13 11 8 7 8 9 9 10 11 12 12 11 10 9 11 14 16 15
26 27 27 26 26 25 24 24 23 22 21 19 19 19 19 21 22 22 22 22 23 22 22 24 25 26 28 29 30 31 31 30 29 29 25 19 15 15 14 12 10 9 10 11 11 13 15 15 15 16 16 13 11 11 10 11 10 9 8 6 4 5 8 10 11 12 13 13 12 11 11 13 14 13
25 25 25 25 25 25 24 24 23 23 21 20 19 18 18 18 19 19 19 21 22 21 19 20 22 23 25 27 28 29 30 29 29 28 27 24 20 18 16 14 11 8 6 7 8 10 11 10 10 12 12 11 10 9 7 6 6 6 7 7 4 3 7 10 11 13 14 14 14 14 14 13 12 12
23 23 23 23 24 23 23 23 23 22 22 21 20 19 18 18 18 18 17 18 19 19 18 18 19 20 22 24 25 26 27 28 27 26 25 24 22 20 18 17 15 12 10 7 6 6 7 6 6 6 7 6 7 7 6 5 6 7 8 9 8 7 7 8 11 13 15 15 14 14 13 12 11 11
22 22 22 22 22 22 22 22 22 21 21 21 20 20 19 18 17 16 15 15 16 17 17 16 17 18 19 21 22 23 24 25 25 24 23 23 22 20 19 17 16 15 14 12 9 6 5 5 5 4 3 4 6 6 4 6 9 11 11 11 11 10 8 8 9 10 12 13 13 12 11 11 10 9
21 21 21 20 20 20 20 20 20 21 21 20 20 20 19 18 17 15 13 12 13 14 15 15 15 15 17 18 19 19 20 21 22 23 22 21 20 18 17 16 14 14 14 13 11 8 6 6 6 5 4 4 5 4 4 8 11 14 14 13 12 11 10 10 9 9 10 12 11 10 10 10 10 9
20 20 20 20 20 19 19 19 19 19 20 20 20 20 20 19 18 17 16 14 14 14 14 14 13 13 14 16 16 16 16 17 18 20 21 21 19 18 16 14 13 13 12 12 10 8 7 7 7 7 5 4 3 2 4 9 12 14 14 14 13 13 12 12 12 12 12 12 10 9 8 8 7 7
17 18 18 19 20 20 20 19 18 18 19 19 19 19 19 19 19 19 18 17 15 15 14 13 13 13 13 14 14 14 15 15 15 17 18 19 19 18 16 14 12 12 11 10 9 7 6 6 6 6 4 3 2 2 5 9 12 12 12 12 12 12 12 12 12 11 10 10 9 7 6 5 4 3
15 15 16 17 19 20 21 20 19 18 19 19 19 19 19 19 18 18 18 17 17 16 15 13 13 13 13 12 12 12 13 13 14 15 16 16 16 17 16 14 12 10 9 8 7 5 6 5 4 5 3 3 3 4 6 8 10 10 10 10 9 10 10 9 9 8 7 7 6 5 5 4 3 3
Wind_Direction
328 323 312 299 292 287 285 285 285 286 283 275 269 262 253 246 238 232 234 240 243 244 243 243 239 234 231 230 229 228 226 222 220 222 222 219 216 215 214 213 210 209 210 209 208 209 208 207 206 208 213 218 217 210 205 206 205 202 204 206 205 202 198 195 193 191 191 190 188 188 190 186 181 180
344 344 342 330 314 302 293 291 288 287 287 282 274 266 256 249 242 237 236 241 246 246 245 243 237 232 232 232 230 228 227 224 221 221 222 219 217 216 215 215 212 209 209 210 211 211 210 209 207 210 217 220 220 215 206 205 207 203 204 209 208 202 197 198 197 194 193 191 187 187 188 184 183 181
349 350 355 354 342 330 317 309 304 299 295 285 274 268 261 252 243 239 238 242 247 249 247 243 235 228 230 235 235 232 230 227 223 221 221 219 217 217 216 216 214 211 209 210 212 212 212 212 209 212 219 218 220 223 213 207 209 205 205 210 210 204 198 198 199 197 193 191 188 188 187 185 184 184
349 346 350 355 351 346 341 336 328 316 309 295 275 266 261 254 246 240 239 242 246 249 250 244 230 222 229 238 240 238 235 233 227 223 221 218 216 216 216 217 215 212 210 209 211 212 213 215 214 214 219 219 220 226 221 213 212 209 209 211 211 207 200 198 200 199 195 193 192 190 189 187 186 186
354 349 345 348 350 346 341 341 339 329 320 305 285 271 261 254 249 244 242 244 247 250 248 236 221 221 231 239 242 240 238 237 232 225 222 220 217 215 215 216 215 213 210 209 210 211 212 215 216 215 218 219 217 220 220 215 213 213 214 212 210 207 203 201 201 199 198 197 195 193 191 189 189 189
2 359 351 347 348 345 339 336 336 337 333 317 297 281 265 253 250 248 247 249 252 250 240 224 218 226 235 240 243 242 240 239 236 229 223 220 218 217 216 216 214 212 211 209 210 212 212 214 216 216 217 216 215 219 222 216 213 215 216 214 211 208 206 205 202 200 202 202 198 196 194 192 192 193
2 3 1 357 354 350 346 341 338 341 342 338 331 306 281 270 262 256 254 255 257 256 248 236 228 232 243 247 245 244 245 243 237 232 227 222 218 217 217 216 214 212 211 210 210 212 213 213 215 217 218 216 216 220 222 220 218 217 216 214 211 210 209 208 204 202 205 205 201 199 198 196 197 197
4 4 5 5 1 355 352 351 348 346 342 338 342 333 317 310 284 263 256 257 263 269 273 269 250 238 245 251 244 241 245 243 238 235 230 224 219 218 218 217 215 214 213 211 211 213 214 215 215 217 218 218 218 219 221 223 222 216 216 216 212 211 212 211 206 204 207 207 204 203 201 200 200 200
10 9 9 8 4 358 355 355 352 345 335 332 338 334 326 322 292 270 269 271 272 272 273 278 270 254 252 253 246 240 240 240 237 233 230 225 220 219 220 218 215 215 215 212 211 213 214 216 217 218 219 219 220 221 221 223 222 216 217 218 213 210 213 213 209 206 208 208 206 205 203 202 202 202
19 15 13 12 10 6 2 358 357 355 348 334 331 327 318 312 298 283 275 266 260 260 260 259 261 270 273 262 249 243 240 239 235 230 228 226 222 221 221 219 216 215 214 212 212 214 215 216 218 219 220 221 221 222 222 222 220 217 219 219 214 211 214 215 211 208 209 209 208 207 205 204 204 203
26 23 19 18 17 15 11 5 358 357 357 352 343 328 310 306 307 304 296 270 238 236 248 249 251 265 275 264 251 247 242 239 236 231 228 225 223 222 220 219 216 214 213 212 213 215 216 217 219 221 222 222 222 222 221 219 217 215 217 217 214 211 213 215 213 210 210 210 209 209 208 206 206 205
30 29 27 27 26 24 21 18 11 5 360 356 352 343 329 317 312 310 312 306 275 247 244 246 252 262 266 259 253 250 242 238 237 232 229 229 227 222 219 219 217 214 212 211 212 214 214 216 220 222 222 223 222 221 218 215 216 215 214 214 213 211 212 215 214 211 211 211 210 210 210 208 208 209
32 33 36 37 37 34 31 28 25 21 15 7 359 354 350 345 333 319 312 313 309 293 272 262 264 270 270 263 259 256 251 247 242 235 231 232 231 226 221 218 216 215 213 211 212 214 213 213 217 219 221 223 224 223 216 212 214 215 213 213 212 211 212 215 215 213 211 212 212 211 210 211 212 212
36 40 44 45 45 43 39 35 34 32 28 23 17 11 6 0 353 343 332 322 314 310 303 292 283 279 279 278 276 272 264 256 248 240 233 229 228 227 223 218 215 214 213 212 214 213 211 211 213 214 217 219 223 224 216 210 212 213 213 214 211 209 212 215 216 214 212 213 214 213 212 212 213 214
40 42 42 42 44 43 40 36 35 35 34 31 27 24 21 16 8 360 351 343 335 328 327 320 307 298 295 294 291 286 277 264 252 247 242 234 227 223 219 215 212 210 209 211 214 213 211 212 212 212 214 216 222 225 217 211 212 210 213 217 211 206 212 216 216 216 213 212 214 214 213 213 215 217
37 35 33 33 36 38 37 34 32 32 35 36 34 32 31 29 24 16 6 359 355 348 342 336 323 314 311 306 300 297 296 287 272 260 251 242 235 230 223 216 210 206 205 208 212 213 211 209 209 212 212 214 221 223 215 214 214 208 211 218 212 207 212 216 215 216 214 212 214 214 215 215 216 218
30 26 24 26 29 30 31 31 29 27 29 32 34 35 35 35 34 31 25 19 17 10 360 354 348 340 332 324 315 309 305 298 287 273 257 243 236 231 223 216 212 208 204 205 208 209 208 207 210 212 209 211 218 217 212 214 213 205 209 215 211 210 215 216 215 216 216 215 215 215 216 217 218 220
31 27 25 26 27 26 26 25 23 21 21 22 25 29 33 34 35 37 36 33 29 25 20 14 7 357 346 336 330 324 317 306 296 284 270 256 246 237 226 217 216 213 207 205 205 204 206 209 209 209 211 215 216 213 213 215 209 204 209 212 210 214 217 216 216 216 216 217 218 219 220 221 221 223
33 32 30 27 26 25 24 20 15 15 16 17 21 27 29 29 31 36 38 35 30 27 25 22 18 10 359 347 335 328 322 313 304 292 278 267 257 244 227 213 212 214 210 209 209 204 205 208 208 209 215 217 213 212 217 213 205 206 209 210 212 216 216 214 215 215 215 217 218 220 221 221 222 224
34 33 31 29 26 24 24 21 17 15 14 16 25 31 32 32 35 38 39 38 34 31 28 25 22 19 14 9 358 348 338 323 307 292 277 265 250 232 213 202 205 212 211 212 216 212 207 208 210 211 212 211 209 212 214 208 204 210 213 214 216 215 212 214 216 214 213 213 214 216 217 217 216 215
40 38 35 32 29 26 24 22 21 19 16 17 24 28 30 34 38 39 37 35 35 32 27 22 18 15 14 13 8 4 0 352 335 308 280 263 247 230 214 202 205 217 219 216 217 217 213 210 209 207 205 206 207 208 208 206 209 214 216 217 216 212 210 215 213 209 208 209 208 207 202 197 194 190
44 43 41 38 35 32 28 24 22 22 21 23 25 25 24 28 33 32 27 23 21 16 11 11 11 10 10 8 4 1 360 360 1 359 343 272 238 233 232 222 215 219 224 223 217 215 216 214 209 204 203 204 206 209 210 212 216 218 214 211 210 209 209 209 202 196 195 192 185 181 176 175 175 174
45 44 43 41 39 36 33 29 26 24 23 25 27 27 25 27 29 24 15 11 9 4 3 6 7 8 10 6 359 355 353 353 359 5 6 358 287 235 230 231 231 226 222 222 222 218 218 219 215 210 207 202 199 205 210 210 211 210 206 201 198 193 190 185 175 170 170 169 167 166 165 165 163 160
42 41 41 42 40 38 36 34 33 31 29 28 28 26 27 29 27 18 11 9 8 6 7 9 7 9 11 9 4 360 357 357 358 360 2 4 4 3 245 214 222 227 224 223 223 222 220 219 216 213 211 207 198 193 192 192 194 195 193 192 185 170 163 163 159 157 161 163 162 158 151 147 146 151
40 39 38 39 38 35 34 34 34 35 35 34 34 33 31 30 23 14 11 11 9 8 8 6 6 10 12 13 12 8 5 7 7 4 360 358 359 2 7 14 208 221 230 224 221 225 229 229 223 216 212 208 201 195 188 181 181 177 171 172 170 162 157 160 160 157 153 147 144 144 143 142 143 151
39 37 37 37 34 30 31 31 32 34 36 38 40 40 38 35 29 22 19 16 13 14 14 12 15 19 21 21 21 17 13 12 11 12 12 8 5 3 2 5 8 350 315 241 221 224 230 231 227 220 215 209 198 186 176 165 160 157 151 150 152 149 148 149 146 141 140 140 143 148 150 148 149 151
39 37 37 36 32 28 28 29 31 33 35 38 40 40 39 39 37 35 33 30 29 30 29 26 25 25 24 23 23 21 20 17 11 10 14 15 14 13 8 5 4 360 356 347 236 222 223 221 214 211 212 208 191 170 159 152 147 145 143 142 141 138 137 139 138 137 141 146 149 152 153 153 155 152
41 40 39 37 35 32 32 34 36 37 37 38 38 38 39 39 39 39 39 39 39 39 36 33 30 27 24 21 20 21 23 24 21 18 19 18 12 12 13 13 13 4 350 358 335 227 230 231 216 205 199 193 178 161 152 149 146 145 144 140 136 134 134 135 134 133 137 141 143 147 151 151 152 150
42 43 41 39 38 38 38 40 42 41 40 40 39 38 37 38 39 40 41 41 41 39 36 33 31 30 28 25 21 19 20 24 27 26 26 26 27 25 18 14 25 32 32 32 35 39 229 230 216 201 186 179 169 155 146 143 142 142 140 134 130 129 129 130 129 129 133 135 137 141 144 145 146 147
43 43 41 40 40 41 42 44 44 44 43 42 42 40 39 38 39 39 38 37 37 36 33 31 31 30 30 29 27 21 19 23 24 22 23 28 34 36 33 32 45 51 54 57 59 65 87 117 160 175 169 167 160 149 143 141 137 134 133 129 128 129 130 132 133 134 136 137 137 140 142 142 142 142
43 44 44 44 45 45 46 47 46 45 43 43 43 42 41 40 39 38 37 36 35 34 32 32 32 31 31 32 34 31 27 27 26 21 22 28 31 32 37 46 53 55 58 69 80 86 93 106 124 148 155 154 149 144 146 143 136 132 132 131 132 134 138 141 141 140 141 140 141 144 146 147 147 146
44 45 45 46 45 44 45 45 44 45 44 43 42 42 40 39 38 38 38 38 37 36 34 34 34 33 32 33 34 33 31 30 29 26 28 32 31 31 40 50 52 52 57 69 81 87 92 102 117 142 154 152 147 144 142 138 134 134 136 138 139 141 143 145 146 147 149 150 151 151 152 155 158 159
45 45 44 43 42 42 42 43 44 45 44 42 41 40 39 38 37 37 37 38 37 37 37 37 37 37 36 35 34 33 33 33 33 33 36 40 39 38 44 50 53 53 56 63 70 73 79 94 111 134 154 153 144 140 136 134 136 139 140 142 146 147 148 151 152 152 155 158 158 160 166 170 168 166
48 46 45 44 43 43 43 44 44 43 43 41 39 37 37 37 38 38 38 37 37 38 39 40 39 39 38 38 36 34 34 34 36 38 42 45 45 43 43 46 48 48 52 58 64 69 81 100 114 128 140 138 135 135 134 134 138 142 142 143 145 147 149 152 153 153 156 160 163 170 179 177 167 163
50 48 46 46 45 44 44 44 43 42 42 41 39 37 37 37 37 37 38 37 37 39 41 41 41 40 39 38 37 36 35 35 36 38 44 49 47 43 41 44 47 47 48 53 57 67 94 121 127 127 130 130 129 132 135 137 140 142 141 141 145 150 151 152 153 155 157 163 171 179 180 174 167 167
50 48 46 45 44 43 43 42 41 41 41 40 37 36 36 36 35 35 36 37 36 38 40 41 41 41 40 39 39 38 37 36 36 38 44 52 51 46 44 48 52 54 53 52 52 57 80 113 119 117 119 124 127 130 133 139 144 145 142 145 153 157 155 153 154 155 159 168 179 184 184 180 175 172
50 48 46 44 42 41 41 40 38 39 39 38 37 35 35 34 33 32 34 37 37 36 37 39 40 39 37 36 37 39 39 38 37 39 44 53 53 47 47 54 62 67 66 59 54 56 65 75 78 78 84 99 115 125 131 138 141 141 141 147 155 160 162 162 159 159 166 176 181 188 192 187 179 173
48 47 45 44 41 39 38 36 35 35 34 32 32 32 31 30 29 29 32 35 36 35 36 39 39 36 32 32 34 38 40 40 40 40 43 48 48 43 41 44 54 72 82 77 69 70 72 71 63 54 52 63 83 102 121 132 133 132 135 135 144 177 182 175 170 171 175 177 178 181 185 184 179 173
46 45 44 43 42 39 37 35 33 32 30 27 25 23 21 19 19 23 28 31 32 31 33 38 40 37 34 33 34 36 38 40 40 40 42 45 45 44 45 44 45 58 79 87 86 82 77 74 68 54 45 49 62 71 80 98 109 119 124 119 119 179 187 181 180 179 176 174 175 174 174 176 176 173
44 43 42 41 40 39 37 36 34 31 30 28 24 20 17 13 12 15 19 23 27 28 29 34 38 37 35 34 34 35 37 38 38 38 38 40 43 44 46 50 54 56 60 67 80 81 74 77 76 55 39 54 77 79 77 95 115 126 130 129 133 146 161 172 179 178 173 171 174 175 174 176 176 174
41 41 40 38 37 36 35 35 34 33 31 30 27 24 21 17 14 13 13 15 19 23 26 28 30 32 34 34 33 35 37 38 38 36 34 34 36 39 42 48 56 58 58 58 62 68 77 89 91 70 55 77 90 94 111 130 133 136 142 147 151 153 154 163 176 181 177 175 176 178 176 175 176 178
37 37 38 37 35 34 32 31 31 31 30 29 28 27 25 23 20 19 18 14 14 17 20 22 23 26 29 30 30 32 35 35 36 36 33 30 29 31 35 42 51 56 55 52 52 57 66 73 77 86 103 105 90 90 128 139 136 136 139 140 142 145 148 152 160 169 173 173 173 173 169 167 171 177
35 34 35 36 35 33 31 30 29 29 28 27 27 26 25 24 23 22 20 16 11 9 10 13 16 18 19 21 24 27 27 27 30 33 33 32 30 27 27 31 40 47 47 40 37 45 52 58 73 92 111 115 85 75 137 142 139 137 137 135 135 136 138 141 145 150 155 158 159 160 161 160 162 165
35 33 33 34 34 33 32 31 31 31 30 28 27 25 23 22 21 20 19 17 12 7 4 5 8 11 14 18 23 24 22 22 24 25 26 30 31 27 24 23 28 36 40 36 32 35 37 49 82 110 121 120 124 149 150 146 145 146 144 144 146 147 147 148 151 153 157 162 164 167 171 174 174 171
37 35 34 33 32 32 32 32 32 32 31 30 28 27 24 22 21 19 17 16 14 11 7 3 2 5 10 14 17 20 22 22 20 16 16 22 27 26 23 22 23 27 32 36 41 43 35 42 93 136 140 118 129 153 157 152 153 156 157 158 162 165 167 169 170 172 179 184 185 187 194 207 230 254